Location: Kumla
(59.1265°N, 15.1401°E)
Time: 15:16:10
(UTC+01:00)

Vanguard 1 - Visible Passes

Search period start: 03 December 2023 00:00
Search period end: 13 December 2023 00:00
Orbit: 651 x 3828 km, 34.3° (Epoch: 01 December)

Date Brightness Start Highest point End Pass type
(mag) Time Alt. Az. Time Alt. Az. Time Alt. Az.
03 Dec 14.0 00:03:19 10° WSW 00:05:56 13° WSW 00:05:56 13° WSW visible
03 Dec 13.6 17:22:21 10° S 17:34:17 22° SE 17:47:05 12° ESE visible
03 Dec 13.3 19:38:58 10° SW 19:55:03 33° S 19:59:45 31° SSE visible
03 Dec 13.5 21:59:40 10° WSW 22:12:23 29° SSW 22:12:23 29° SSW visible
04 Dec 14.1 00:24:40 10° WSW 00:25:02 10° WSW 00:25:02 10° WSW visible
04 Dec 13.5 17:41:06 10° SSW 17:53:50 25° SSE 18:06:13 15° ESE visible
04 Dec 13.3 19:58:44 10° SW 20:14:58 33° S 20:18:52 32° SSE visible
04 Dec 13.6 22:20:04 10° WSW 22:31:31 27° SW 22:31:31 27° SW visible
05 Dec 13.8 15:48:14 10° SSE 15:54:19 13° SE 16:01:15 10° ESE visible
05 Dec 13.5 18:00:12 10° SSW 18:13:29 28° SSE 18:25:20 17° ESE visible
05 Dec 13.3 20:18:39 10° SW 20:34:54 33° S 20:37:59 32° S visible
05 Dec 13.7 22:40:40 10° WSW 22:50:38 23° SW 22:50:38 23° SW visible
06 Dec 13.7 16:05:15 10° SSE 16:13:34 16° SE 16:23:45 10° ESE visible
06 Dec 13.4 18:19:34 10° SSW 18:33:14 30° SSE 18:44:28 19° SE visible
06 Dec 13.4 20:38:44 10° WSW 20:54:50 32° S 20:57:08 32° S visible
06 Dec 13.8 23:01:32 10° WSW 23:09:47 20° SW 23:09:47 20° SW visible
07 Dec 13.6 16:23:22 10° S 16:32:58 19° SE 16:45:14 10° ESE visible
07 Dec 13.4 18:39:10 10° SW 18:53:04 31° SSE 19:03:38 21° SE visible
07 Dec 13.4 20:58:56 10° WSW 21:14:45 31° SSW 21:16:18 30° S visible
07 Dec 13.9 23:22:49 10° WSW 23:28:57 16° WSW 23:28:57 16° WSW visible
08 Dec 13.5 16:42:05 10° S 16:52:28 22° SSE 17:06:14 10° ESE visible
08 Dec 13.4 18:58:55 10° SW 19:12:57 32° S 19:22:50 23° SE visible
08 Dec 13.5 21:19:19 10° WSW 21:34:37 28° SSW 21:35:30 28° SSW visible
08 Dec 14.0 23:44:52 10° WSW 23:48:09 13° WSW 23:48:09 13° WSW visible
09 Dec 13.4 17:01:10 10° SSW 17:12:05 25° SSE 17:26:55 10° ESE visible
09 Dec 13.4 19:18:50 10° SW 19:32:52 31° S 19:42:05 24° SSE visible
09 Dec 13.6 21:39:53 10° WSW 21:54:27 26° SSW 21:54:45 25° SSW visible
10 Dec 13.4 17:20:32 10° SSW 17:31:48 27° SSE 17:47:23 10° ESE visible
10 Dec 13.4 19:38:53 10° WSW 19:52:49 30° S 20:01:23 24° SSE visible
10 Dec 13.7 22:00:44 10° WSW 22:14:03 22° SSW 22:14:03 22° SSW visible
11 Dec 13.4 17:40:06 10° SW 17:51:36 28° SSE 18:07:39 10° ESE visible
11 Dec 13.5 19:59:04 10° WSW 20:12:45 29° SSW 20:20:45 23° SSE visible
11 Dec 13.8 22:22:02 10° WSW 22:33:26 19° SW 22:33:26 19° SW visible
12 Dec 13.5 15:43:48 10° S 15:51:43 19° SE 16:02:20 10° ESE visible
12 Dec 13.4 17:59:51 10° SW 18:11:28 29° S 18:27:32 10° ESE visible
12 Dec 13.5 20:19:26 10° WSW 20:32:40 27° SSW 20:40:13 22° S visible
12 Dec 13.9 22:44:09 10° WSW 22:52:54 15° SW 22:52:54 15° SW visible
